| time (UTC) | temp C | wind direction | speed KPH | gust KPH | rain 1hr cm | rain 24hr cm | rain mn cm | humidity % | barometer mb |
| 20260510120556 | 15 | 31 | 9.7 | 19.3 | 0.00 | 0.00 | 0.00 | 62 | 1013.6 |
| 20260510115555 | 15 | 27 | 8.0 | 9.7 | 0.00 | 0.00 | 0.00 | 62 | 1013.0 |
| 20260510114556 | 16 | 24 | 9.7 | 11.3 | 0.00 | 0.00 | 0.00 | 62 | 1012.6 |
| 20260510113555 | 16 | 38 | 4.8 | 14.5 | 0.00 | 0.00 | 0.00 | 62 | 1012.3 |
| 20260510112556 | 16 | 28 | 11.3 | 19.3 | 0.00 | 0.00 | 0.00 | 62 | 1011.7 |
| 20260510111557 | 16 | 19 | 9.7 | 11.3 | 0.00 | 0.00 | 0.00 | 62 | 1011.4 |
| 20260510110555 | 16 | 24 | 11.3 | 19.3 | 0.00 | 0.00 | 0.00 | 61 | 1011.0 |
| 20260510105556 | 16 | 33 | 11.3 | 22.5 | 0.00 | 0.00 | 0.00 | 61 | 1010.7 |
| 20260510104555 | 16 | 31 | 9.7 | 12.9 | 0.00 | 0.00 | 0.00 | 61 | 1010.7 |
| 20260510103556 | 16 | 23 | 9.7 | 11.3 | 0.00 | 0.00 | 0.00 | 60 | 1010.7 |
| 20260510102555 | 16 | 22 | 12.9 | 22.5 | 0.00 | 0.00 | 0.00 | 61 | 1010.5 |
| 20260510101556 | 16 | 35 | 9.7 | 22.5 | 0.00 | 0.00 | 0.00 | 61 | 1010.3 |
| 20260510100555 | 16 | 27 | 9.7 | 20.9 | 0.00 | 0.00 | 0.00 | 61 | 1010.1 |
| 20260510095556 | 16 | 23 | 8.0 | 11.3 | 0.00 | 0.00 | 0.00 | 61 | 1010.0 |
| 20260510094555 | 16 | 32 | 8.0 | 9.7 | 0.00 | 0.00 | 0.00 | 61 | 1009.9 |
| 20260510093556 | 16 | 34 | 9.7 | 14.5 | 0.00 | 0.00 | 0.00 | 61 | 1009.6 |
| 20260510092555 | 16 | 21 | 4.8 | 11.3 | 0.00 | 0.00 | 0.00 | 62 | 1009.5 |
| 20260510091556 | 16 | 48 | 4.8 | 11.3 | 0.00 | 0.00 | 0.00 | 61 | 1009.6 |
| 20260510090555 | 17 | 29 | 8.0 | 19.3 | 0.00 | 0.00 | 0.00 | 61 | 1009.4 |
| 20260510085556 | 17 | 33 | 8.0 | 16.1 | 0.00 | 0.00 | 0.00 | 62 | 1009.1 |
| 20260510084554 | 17 | 20 | 9.7 | 19.3 | 0.00 | 0.00 | 0.00 | 62 | 1009.0 |
| 20260510083555 | 17 | 27 | 4.8 | 12.9 | 0.00 | 0.00 | 0.00 | 62 | 1009.1 |
| 20260510082554 | 17 | 28 | 8.0 | 14.5 | 0.00 | 0.00 | 0.00 | 62 | 1009.0 |
| 20260510081555 | 17 | 22 | 8.0 | 8.0 | 0.00 | 0.00 | 0.00 | 61 | 1009.0 |
| 20260510080554 | 17 | 18 | 3.2 | 8.0 | 0.00 | 0.00 | 0.00 | 61 | 1008.8 |
| 20260510075555 | 17 | 16 | 1.6 | 4.8 | 0.00 | 0.00 | 0.00 | 61 | 1008.5 |
| 20260510074556 | 17 | 37 | 3.2 | 4.8 | 0.00 | 0.00 | 0.00 | 61 | 1008.5 |
| 20260510073555 | 17 | 10 | 1.6 | 4.8 | 0.00 | 0.00 | 0.00 | 60 | 1008.7 |
| 20260510072555 | 17 | 37 | 3.2 | 4.8 | 0.00 | 0.00 | 0.00 | 60 | 1008.6 |
| 20260510071555 | 18 | 30 | 3.2 | 4.8 | 0.00 | 0.00 | 0.00 | 59 | 1008.5 |
| 20260510070556 | 18 | 42 | 3.2 | 4.8 | 0.00 | 0.00 | 0.00 | 58 | 1008.5 |
| 20260510065555 | 18 | 46 | 3.2 | 4.8 | 0.00 | 0.00 | 0.00 | 56 | 1008.4 |
| 20260510064554 | 19 | 26 | 4.8 | 8.0 | 0.00 | 0.00 | 0.00 | 55 | 1008.3 |
| 20260510063555 | 19 | 21 | 8.0 | 11.3 | 0.00 | 0.00 | 0.00 | 54 | 1008.3 |
| 20260510062555 | 19 | 17 | 1.6 | 3.2 | 0.00 | 0.00 | 0.00 | 53 | 1008.2 |
| 20260510061556 | 19 | 15 | 1.6 | 1.6 | 0.00 | 0.00 | 0.00 | 52 | 1007.8 |
| 20260510060555 | 19 | 22 | 3.2 | 4.8 | 0.00 | 0.00 | 0.00 | 53 | 1007.8 |
| 20260510055556 | 20 | 32 | 1.6 | 1.6 | 0.00 | 0.00 | 0.00 | 53 | 1007.6 |
| 20260510054554 | 20 | 29 | 3.2 | 4.8 | 0.00 | 0.00 | 0.00 | 53 | 1007.5 |
| 20260510053555 | 19 | 21 | 3.2 | 4.8 | 0.00 | 0.00 | 0.00 | 53 | 1007.2 |
| 20260510052555 | 19 | 21 | 3.2 | 3.2 | 0.00 | 0.00 | 0.00 | 54 | 1006.9 |
| 20260510051556 | 19 | 31 | 0.0 | 0.0 | 0.00 | 0.00 | 0.00 | 54 | 1006.7 |
| 20260510050555 | 20 | 31 | 0.0 | 0.0 | 0.00 | 0.00 | 0.00 | 54 | 1006.7 |
| 20260510045556 | 20 | 31 | 0.0 | 0.0 | 0.00 | 0.00 | 0.00 | 53 | 1006.8 |
| 20260510044555 | 20 | 46 | 0.0 | 0.0 | 0.00 | 0.00 | 0.00 | 52 | 1006.8 |
| 20260510043556 | 20 | 88 | 0.0 | 1.6 | 0.00 | 0.00 | 0.00 | 52 | 1006.7 |
| 20260510042555 | 20 | 88 | 0.0 | 1.6 | 0.00 | 0.00 | 0.00 | 52 | 1006.9 |
| 20260510041556 | 20 | 95 | 0.0 | 1.6 | 0.00 | 0.00 | 0.00 | 51 | 1006.9 |
| 20260510040555 | 21 | 101 | 0.0 | 0.0 | 0.00 | 0.00 | 0.00 | 50 | 1007.0 |
| 20260510035556 | 21 | 89 | 0.0 | 1.6 | 0.00 | 0.00 | 0.00 | 50 | 1006.9 |
| 20260510034555 | 21 | 89 | 0.0 | 0.0 | 0.00 | 0.00 | 0.00 | 49 | 1006.9 |
| 20260510033556 | 21 | 89 | 0.0 | 0.0 | 0.00 | 0.00 | 0.00 | 48 | 1006.7 |
| 20260510032555 | 22 | 161 | 0.0 | 0.0 | 0.00 | 0.00 | 0.00 | 48 | 1006.6 |
| 20260510031556 | 22 | 226 | 0.0 | 1.6 | 0.00 | 0.00 | 0.00 | 47 | 1006.3 |
| 20260510030555 | 22 | 217 | 1.6 | 4.8 | 0.00 | 0.00 | 0.00 | 48 | 1006.2 |
| 20260510025556 | 22 | 191 | 3.2 | 8.0 | 0.00 | 0.00 | 0.00 | 47 | 1006.6 |
| 20260510024555 | 22 | 275 | 0.0 | 1.6 | 0.00 | 0.00 | 0.00 | 48 | 1007.1 |
| 20260510023555 | 22 | 285 | 0.0 | 3.2 | 0.00 | 0.00 | 0.00 | 46 | 1007.0 |
| 20260510022555 | 23 | 296 | 0.0 | 1.6 | 0.00 | 0.00 | 0.00 | 46 | 1006.9 |
| 20260510021555 | 23 | 243 | 0.0 | 3.2 | 0.00 | 0.00 | 0.00 | 46 | 1006.9 |
| 20260510020554 | 23 | 273 | 1.6 | 3.2 | 0.00 | 0.00 | 0.00 | 40 | 1006.9 |
| 20260510015555 | 23 | 259 | 0.0 | 0.0 | 0.00 | 0.00 | 0.00 | 41 | 1007.2 |
| 20260510014556 | 24 | 267 | 0.0 | 0.0 | 0.00 | 0.00 | 0.00 | 39 | 1006.8 |
| 20260510013555 | 25 | 236 | 0.0 | 0.0 | 0.00 | 0.00 | 0.00 | 36 | 1006.3 |
| 20260510012555 | 25 | 188 | 3.2 | 4.8 | 0.00 | 0.00 | 0.00 | 35 | 1005.6 |
| 20260510011556 | 25 | 217 | 3.2 | 4.8 | 0.00 | 0.00 | 0.00 | 34 | 1005.0 |
| 20260510010555 | 26 | 157 | 1.6 | 4.8 | 0.00 | 0.00 | 0.00 | 33 | 1004.4 |
| 20260510005556 | 26 | 188 | 3.2 | 4.8 | 0.00 | 0.00 | 0.00 | 33 | 1004.4 |
| 20260510004555 | 26 | 188 | 3.2 | 4.8 | 0.00 | 0.00 | 0.00 | 32 | 1004.2 |
| 20260510003556 | 27 | 186 | 4.8 | 4.8 | 0.00 | 0.00 | 0.00 | 32 | 1003.8 |
| 20260510002555 | 27 | 187 | 4.8 | 4.8 | 0.00 | 0.00 | 0.00 | 31 | 1003.6 |
| 20260510001556 | 27 | 186 | 3.2 | 3.2 | 0.00 | 0.00 | 0.00 | 29 | 1003.6 |
| 20260510000555 | 28 | 181 | 3.2 | 4.8 | 0.00 | 0.00 | 0.00 | 28 | 1003.5 |
| 20260509235554 | 28 | 146 | 4.8 | 4.8 | 0.00 | 0.00 | 0.00 | 28 | 1003.7 |
| 20260509234555 | 28 | 203 | 3.2 | 4.8 | 0.00 | 0.00 | 0.00 | 26 | 1003.8 |
| 20260509233556 | 29 | 201 | 3.2 | 4.8 | 0.00 | 0.00 | 0.00 | 26 | 1003.9 |
| 20260509232555 | 29 | 174 | 8.0 | 8.0 | 0.00 | 0.00 | 0.00 | 24 | 1004.1 |
| 20260509231556 | 29 | 213 | 3.2 | 4.8 | 0.00 | 0.00 | 0.00 | 25 | 1004.1 |
| 20260509230554 | 29 | 213 | 0.0 | 1.6 | 0.00 | 0.00 | 0.00 | 26 | 1003.8 |
| 20260509225554 | 29 | 192 | 4.8 | 12.9 | 0.00 | 0.00 | 0.00 | 24 | 1003.7 |
| 20260509224554 | 29 | 288 | 1.6 | 1.6 | 0.00 | 0.00 | 0.00 | 24 | 1003.6 |
| 20260509223555 | 30 | 137 | 3.2 | 4.8 | 0.00 | 0.00 | 0.00 | 23 | 1003.6 |
| 20260509222554 | 30 | 196 | 1.6 | 4.8 | 0.00 | 0.00 | 0.00 | 25 | 1003.6 |
| 20260509221555 | 30 | 200 | 8.0 | 9.7 | 0.00 | 0.00 | 0.00 | 23 | 1003.6 |
| 20260509220556 | 30 | 195 | 9.7 | 14.5 | 0.00 | 0.00 | 0.00 | 26 | 1003.5 |
| 20260509215555 | 30 | 197 | 3.2 | 4.8 | 0.00 | 0.00 | 0.00 | 25 | 1003.5 |
| 20260509214556 | 30 | 215 | 3.2 | 4.8 | 0.00 | 0.00 | 0.00 | 24 | 1003.6 |
| 20260509213555 | 30 | 250 | 3.2 | 3.2 | 0.00 | 0.00 | 0.00 | 23 | 1003.6 |
| 20260509212556 | 30 | 176 | 1.6 | 1.6 | 0.00 | 0.00 | 0.00 | 23 | 1003.8 |
| 20260509211555 | 30 | 186 | 8.0 | 9.7 | 0.00 | 0.00 | 0.00 | 23 | 1004.0 |
| 20260509210556 | 30 | 181 | 1.6 | 8.0 | 0.00 | 0.00 | 0.00 | 24 | 1004.1 |
| 20260509205555 | 30 | 220 | 4.8 | 4.8 | 0.00 | 0.00 | 0.00 | 23 | 1004.1 |
| 20260509204556 | 30 | 181 | 8.0 | 8.0 | 0.00 | 0.00 | 0.00 | 23 | 1004.3 |
| 20260509203556 | 30 | 217 | 1.6 | 4.8 | 0.00 | 0.00 | 0.00 | 24 | 1004.5 |
| 20260509202555 | 29 | 145 | 3.2 | 8.0 | 0.00 | 0.00 | 0.00 | 25 | 1004.7 |
| 20260509201556 | 29 | 242 | 1.6 | 4.8 | 0.00 | 0.00 | 0.00 | 26 | 1004.7 |
| 20260509200554 | 29 | 190 | 4.8 | 14.5 | 0.00 | 0.00 | 0.00 | 31 | 1004.8 |
| 20260509195555 | 29 | 181 | 4.8 | 9.7 | 0.00 | 0.00 | 0.00 | 24 | 1005.0 |
| 20260509194555 | 29 | 154 | 0.0 | 3.2 | 0.00 | 0.00 | 0.00 | 25 | 1005.0 |
| 20260509193555 | 29 | 212 | 3.2 | 4.8 | 0.00 | 0.00 | 0.00 | 24 | 1005.2 |
| 20260509192555 | 29 | 207 | 8.0 | 11.3 | 0.00 | 0.00 | 0.00 | 26 | 1005.2 |
| 20260509191555 | 29 | 294 | 1.6 | 1.6 | 0.00 | 0.00 | 0.00 | 26 | 1005.2 |
| 20260509190554 | 29 | 193 | 3.2 | 4.8 | 0.00 | 0.00 | 0.00 | 24 | 1005.2 |
| 20260509185556 | 29 | 186 | 4.8 | 11.3 | 0.00 | 0.00 | 0.00 | 27 | 1005.4 |
| 20260509184556 | 29 | 244 | 0.0 | 3.2 | 0.00 | 0.00 | 0.00 | 25 | 1005.5 |
| 20260509183555 | 29 | 229 | 0.0 | 1.6 | 0.00 | 0.00 | 0.00 | 25 | 1005.6 |
| 20260509182554 | 28 | 222 | 3.2 | 4.8 | 0.00 | 0.00 | 0.00 | 27 | 1005.7 |
| 20260509181555 | 28 | 287 | 1.6 | 1.6 | 0.00 | 0.00 | 0.00 | 27 | 1005.9 |
| 20260509180555 | 28 | 198 | 1.6 | 9.7 | 0.00 | 0.00 | 0.00 | 28 | 1006.1 |
| 20260509175555 | 27 | 281 | 1.6 | 1.6 | 0.00 | 0.00 | 0.00 | 27 | 1006.3 |
| 20260509174555 | 27 | 309 | 1.6 | 4.8 | 0.00 | 0.00 | 0.00 | 27 | 1006.4 |
| 20260509173556 | 27 | 294 | 3.2 | 4.8 | 0.00 | 0.00 | 0.00 | 28 | 1006.6 |
| 20260509172554 | 27 | 267 | 1.6 | 3.2 | 0.00 | 0.00 | 0.00 | 29 | 1006.7 |
| 20260509171555 | 26 | 278 | 0.0 | 1.6 | 0.00 | 0.00 | 0.00 | 29 | 1006.9 |
| 20260509170554 | 27 | 272 | 1.6 | 4.8 | 0.00 | 0.00 | 0.00 | 30 | 1007.0 |
| 20260509165555 | 26 | 263 | 1.6 | 4.8 | 0.00 | 0.00 | 0.00 | 30 | 1006.9 |
| 20260509164556 | 27 | 283 | 1.6 | 3.2 | 0.00 | 0.00 | 0.00 | 29 | 1006.9 |
| 20260509163555 | 26 | 284 | 3.2 | 3.2 | 0.00 | 0.00 | 0.00 | 30 | 1006.9 |
| 20260509162554 | 26 | 287 | 0.0 | 0.0 | 0.00 | 0.00 | 0.00 | 33 | 1007.2 |
| 20260509161555 | 26 | 285 | 1.6 | 1.6 | 0.00 | 0.00 | 0.00 | 33 | 1007.1 |
| 20260509160554 | 25 | 274 | 1.6 | 3.2 | 0.00 | 0.00 | 0.00 | 36 | 1007.1 |
| 20260509155555 | 25 | 288 | 0.0 | 1.6 | 0.00 | 0.00 | 0.00 | 37 | 1006.9 |
| 20260509154554 | 25 | 284 | 1.6 | 3.2 | 0.00 | 0.00 | 0.00 | 39 | 1007.0 |
| 20260509153555 | 24 | 281 | 1.6 | 1.6 | 0.00 | 0.00 | 0.00 | 41 | 1006.9 |
| 20260509152554 | 23 | 280 | 1.6 | 1.6 | 0.00 | 0.00 | 0.00 | 43 | 1007.0 |
| 20260509151555 | 22 | 274 | 0.0 | 1.6 | 0.00 | 0.00 | 0.00 | 50 | 1007.0 |
| 20260509150556 | 21 | 286 | 0.0 | 1.6 | 0.00 | 0.00 | 0.00 | 53 | 1007.2 |
| 20260509145554 | 21 | 242 | 0.0 | 3.2 | 0.00 | 0.00 | 0.00 | 57 | 1007.0 |
| 20260509144555 | 20 | 277 | 0.0 | 1.6 | 0.00 | 0.00 | 0.00 | 61 | 1007.0 |
| 20260509143555 | 20 | 262 | 0.0 | 1.6 | 0.00 | 0.00 | 0.00 | 63 | 1007.2 |
| 20260509142556 | 18 | 245 | 0.0 | 3.2 | 0.00 | 0.00 | 0.00 | 67 | 1007.3 |
| 20260509141556 | 18 | 240 | 0.0 | 1.6 | 0.00 | 0.00 | 0.00 | 69 | 1007.3 |
| 20260509140555 | 17 | 268 | 1.6 | 1.6 | 0.00 | 0.00 | 0.00 | 70 | 1007.3 |
| 20260509135554 | 16 | 261 | 1.6 | 1.6 | 0.00 | 0.00 | 0.00 | 71 | 1007.1 |
| 20260509134554 | 16 | 262 | 0.0 | 1.6 | 0.00 | 0.00 | 0.00 | 73 | 1007.1 |
| 20260509134323 | 16 | 262 | 0.0 | 0.0 | 0.00 | 0.00 | 0.00 | 72 | 1007.1 |
| 20260509133555 | 15 | 264 | 0.0 | 1.6 | 0.00 | 0.00 | 0.00 | 74 | 1007.2 |
| 20260509132555 | 15 | 283 | 0.0 | 1.6 | 0.00 | 0.00 | 0.00 | 75 | 1007.4 |
| 20260509131555 | 15 | 278 | 1.6 | 1.6 | 0.00 | 0.00 | 0.00 | 75 | 1007.3 |
| 20260509130555 | 13 | 252 | 0.0 | 0.0 | 0.00 | 0.00 | 0.00 | 75 | 1007.3 |
| 20260509125554 | 13 | 252 | 0.0 | 1.6 | 0.00 | 0.00 | 0.00 | 76 | 1007.0 |
| 20260509125324 | 13 | 252 | 0.0 | 1.6 | 0.00 | 0.00 | 0.00 | 77 | 1007.0 |
| 20260509124556 | 13 | 252 | 0.0 | 0.0 | 0.00 | 0.00 | 0.00 | 77 | 1007.0 |
| 20260509123555 | 12 | 252 | 0.0 | 0.0 | 0.00 | 0.00 | 0.00 | 79 | 1006.8 |
| 20260509122555 | 11 | 252 | 0.0 | 1.6 | 0.00 | 0.00 | 0.00 | 83 | 1006.8 |
| 20260509121555 | 10 | 252 | 0.0 | 0.0 | 0.00 | 0.00 | 0.00 | 86 | 1006.9 |